utcTime,localTime,pm25,nowcast
2022-09-09 15:00:00 +0000,2022-09-09 08:00:00 -0700,45.3,NA
2022-09-09 16:00:00 +0000,2022-09-09 09:00:00 -0700,14.6,24.8
2022-09-09 17:00:00 +0000,2022-09-09 10:00:00 -0700,4.9,13.4
2022-09-09 18:00:00 +0000,2022-09-09 11:00:00 -0700,3.3,8
2022-09-09 19:00:00 +0000,2022-09-09 12:00:00 -0700,2.9,5.3
2022-09-09 20:00:00 +0000,2022-09-09 13:00:00 -0700,2.8,4
2022-09-09 21:00:00 +0000,2022-09-09 14:00:00 -0700,2.9,3.4
2022-09-09 22:00:00 +0000,2022-09-09 15:00:00 -0700,4.1,3.7
2022-09-09 23:00:00 +0000,2022-09-09 16:00:00 -0700,5.5,4.6
2022-09-10 00:00:00 +0000,2022-09-09 17:00:00 -0700,6.3,5.4
2022-09-10 01:00:00 +0000,2022-09-09 18:00:00 -0700,9.1,7.2
2022-09-10 02:00:00 +0000,2022-09-09 19:00:00 -0700,10.6,8.9
2022-09-10 03:00:00 +0000,2022-09-09 20:00:00 -0700,10.7,9.8
2022-09-10 04:00:00 +0000,2022-09-09 21:00:00 -0700,10.4,10.1
2022-09-10 05:00:00 +0000,2022-09-09 22:00:00 -0700,9.8,9.9
2022-09-10 06:00:00 +0000,2022-09-09 23:00:00 -0700,8.5,9.2
2022-09-10 07:00:00 +0000,2022-09-10 00:00:00 -0700,8.8,9
2022-09-10 08:00:00 +0000,2022-09-10 01:00:00 -0700,9,9
2022-09-10 09:00:00 +0000,2022-09-10 02:00:00 -0700,9,9
2022-09-10 10:00:00 +0000,2022-09-10 03:00:00 -0700,8.9,8.9
2022-09-10 11:00:00 +0000,2022-09-10 04:00:00 -0700,8,8.5
2022-09-10 12:00:00 +0000,2022-09-10 05:00:00 -0700,7.5,8.3
2022-09-10 13:00:00 +0000,2022-09-10 06:00:00 -0700,8.1,8.2
2022-09-10 14:00:00 +0000,2022-09-10 07:00:00 -0700,7.5,8
2022-09-10 15:00:00 +0000,2022-09-10 08:00:00 -0700,7.7,7.9
2022-09-10 16:00:00 +0000,2022-09-10 09:00:00 -0700,7.7,7.9
2022-09-10 17:00:00 +0000,2022-09-10 10:00:00 -0700,10.3,8.5
2022-09-10 18:00:00 +0000,2022-09-10 11:00:00 -0700,8.2,8.4
2022-09-10 19:00:00 +0000,2022-09-10 12:00:00 -0700,11.1,9.3
2022-09-10 20:00:00 +0000,2022-09-10 13:00:00 -0700,18.5,14.1
2022-09-10 21:00:00 +0000,2022-09-10 14:00:00 -0700,25.9,20
2022-09-10 22:00:00 +0000,2022-09-10 15:00:00 -0700,29.9,24.9
2022-09-10 23:00:00 +0000,2022-09-10 16:00:00 -0700,32,28.4
2022-09-11 00:00:00 +0000,2022-09-10 17:00:00 -0700,28.4,28.4
2022-09-11 01:00:00 +0000,2022-09-10 18:00:00 -0700,26.9,27.6
2022-09-11 02:00:00 +0000,2022-09-10 19:00:00 -0700,24.1,25.8
2022-09-11 03:00:00 +0000,2022-09-10 20:00:00 -0700,22.8,24.3
2022-09-11 04:00:00 +0000,2022-09-10 21:00:00 -0700,22.9,23.6
2022-09-11 05:00:00 +0000,2022-09-10 22:00:00 -0700,22.3,22.9
2022-09-11 06:00:00 +0000,2022-09-10 23:00:00 -0700,23.4,23.1
2022-09-11 07:00:00 +0000,2022-09-11 00:00:00 -0700,23.4,23.3
2022-09-11 08:00:00 +0000,2022-09-11 01:00:00 -0700,24,23.7
2022-09-11 09:00:00 +0000,2022-09-11 02:00:00 -0700,24.7,24
2022-09-11 10:00:00 +0000,2022-09-11 03:00:00 -0700,24.9,24.2
2022-09-11 11:00:00 +0000,2022-09-11 04:00:00 -0700,24.4,24.2
2022-09-11 12:00:00 +0000,2022-09-11 05:00:00 -0700,24,24
2022-09-11 13:00:00 +0000,2022-09-11 06:00:00 -0700,23.7,23.8
2022-09-11 14:00:00 +0000,2022-09-11 07:00:00 -0700,23.6,23.8
2022-09-11 15:00:00 +0000,2022-09-11 08:00:00 -0700,23.1,23.7
2022-09-11 16:00:00 +0000,2022-09-11 09:00:00 -0700,23,23.6
2022-09-11 17:00:00 +0000,2022-09-11 10:00:00 -0700,24,23.7
2022-09-11 18:00:00 +0000,2022-09-11 11:00:00 -0700,24.9,23.9
2022-09-11 19:00:00 +0000,2022-09-11 12:00:00 -0700,23.1,23.8
2022-09-11 20:00:00 +0000,2022-09-11 13:00:00 -0700,24.2,23.9
2022-09-11 21:00:00 +0000,2022-09-11 14:00:00 -0700,24.5,23.9
2022-09-11 22:00:00 +0000,2022-09-11 15:00:00 -0700,24.7,23.9
2022-09-11 23:00:00 +0000,2022-09-11 16:00:00 -0700,24.8,24
2022-09-12 00:00:00 +0000,2022-09-11 17:00:00 -0700,25.2,24.2
2022-09-12 01:00:00 +0000,2022-09-11 18:00:00 -0700,26.4,24.6
2022-09-12 02:00:00 +0000,2022-09-11 19:00:00 -0700,26.5,25
2022-09-12 03:00:00 +0000,2022-09-11 20:00:00 -0700,27.3,25.5
2022-09-12 04:00:00 +0000,2022-09-11 21:00:00 -0700,26.8,25.8
2022-09-12 05:00:00 +0000,2022-09-11 22:00:00 -0700,27.6,26.2
2022-09-12 06:00:00 +0000,2022-09-11 23:00:00 -0700,27.7,26.5
2022-09-12 07:00:00 +0000,2022-09-12 00:00:00 -0700,27.7,26.6
2022-09-12 08:00:00 +0000,2022-09-12 01:00:00 -0700,27.9,26.9
2022-09-12 09:00:00 +0000,2022-09-12 02:00:00 -0700,28.1,27.1
2022-09-12 10:00:00 +0000,2022-09-12 03:00:00 -0700,28.9,27.5
2022-09-12 11:00:00 +0000,2022-09-12 04:00:00 -0700,30.5,28.3
2022-09-12 12:00:00 +0000,2022-09-12 05:00:00 -0700,34.1,29.8
2022-09-12 13:00:00 +0000,2022-09-12 06:00:00 -0700,35.8,31.6
2022-09-12 14:00:00 +0000,2022-09-12 07:00:00 -0700,37.4,33.5
2022-09-12 15:00:00 +0000,2022-09-12 08:00:00 -0700,37,34.5
2022-09-12 16:00:00 +0000,2022-09-12 09:00:00 -0700,38.1,35.5
2022-09-12 17:00:00 +0000,2022-09-12 10:00:00 -0700,37.5,36.1
2022-09-12 18:00:00 +0000,2022-09-12 11:00:00 -0700,38.2,36.7
2022-09-12 19:00:00 +0000,2022-09-12 12:00:00 -0700,38.3,37.2
2022-09-12 20:00:00 +0000,2022-09-12 13:00:00 -0700,39,37.8
2022-09-12 21:00:00 +0000,2022-09-12 14:00:00 -0700,38.6,38
2022-09-12 22:00:00 +0000,2022-09-12 15:00:00 -0700,38.2,38
2022-09-12 23:00:00 +0000,2022-09-12 16:00:00 -0700,37.9,37.8
2022-09-13 00:00:00 +0000,2022-09-12 17:00:00 -0700,38,37.9
2022-09-13 01:00:00 +0000,2022-09-12 18:00:00 -0700,38.1,38
2022-09-13 02:00:00 +0000,2022-09-12 19:00:00 -0700,36.2,37.8
2022-09-13 03:00:00 +0000,2022-09-12 20:00:00 -0700,35.9,37.6
2022-09-13 04:00:00 +0000,2022-09-12 21:00:00 -0700,36.3,37.4
2022-09-13 05:00:00 +0000,2022-09-12 22:00:00 -0700,36.7,37.3
2022-09-13 06:00:00 +0000,2022-09-12 23:00:00 -0700,36.8,37.2
2022-09-13 07:00:00 +0000,2022-09-13 00:00:00 -0700,37,37.1
2022-09-13 08:00:00 +0000,2022-09-13 01:00:00 -0700,37.4,37.1
2022-09-13 09:00:00 +0000,2022-09-13 02:00:00 -0700,36.2,36.9
2022-09-13 10:00:00 +0000,2022-09-13 03:00:00 -0700,35.6,36.7
2022-09-13 11:00:00 +0000,2022-09-13 04:00:00 -0700,36.7,36.6
2022-09-13 12:00:00 +0000,2022-09-13 05:00:00 -0700,36.8,36.6
2022-09-13 13:00:00 +0000,2022-09-13 06:00:00 -0700,31.7,35.6
2022-09-13 14:00:00 +0000,2022-09-13 07:00:00 -0700,29.4,34
2022-09-13 15:00:00 +0000,2022-09-13 08:00:00 -0700,30.6,33.2
2022-09-13 16:00:00 +0000,2022-09-13 09:00:00 -0700,34.1,33.4
2022-09-13 17:00:00 +0000,2022-09-13 10:00:00 -0700,36.3,34
2022-09-13 18:00:00 +0000,2022-09-13 11:00:00 -0700,36.1,34.4
2022-09-13 19:00:00 +0000,2022-09-13 12:00:00 -0700,35.5,34.6
2022-09-13 20:00:00 +0000,2022-09-13 13:00:00 -0700,37.3,35.2
2022-09-13 21:00:00 +0000,2022-09-13 14:00:00 -0700,40.7,36.9
2022-09-13 22:00:00 +0000,2022-09-13 15:00:00 -0700,37.1,37
2022-09-13 23:00:00 +0000,2022-09-13 16:00:00 -0700,36.2,36.7
2022-09-14 00:00:00 +0000,2022-09-13 17:00:00 -0700,36.4,36.6
2022-09-14 01:00:00 +0000,2022-09-13 18:00:00 -0700,32.2,35.4
2022-09-14 02:00:00 +0000,2022-09-13 19:00:00 -0700,31.7,34.5
2022-09-14 03:00:00 +0000,2022-09-13 20:00:00 -0700,29.1,32.8
2022-09-14 04:00:00 +0000,2022-09-13 21:00:00 -0700,24.4,28.8
2022-09-14 05:00:00 +0000,2022-09-13 22:00:00 -0700,20.4,24
2022-09-14 06:00:00 +0000,2022-09-13 23:00:00 -0700,16.4,20.2
2022-09-14 07:00:00 +0000,2022-09-14 00:00:00 -0700,16.4,18.3
2022-09-14 08:00:00 +0000,2022-09-14 01:00:00 -0700,18,18.1
2022-09-14 09:00:00 +0000,2022-09-14 02:00:00 -0700,17,17.5
2022-09-14 10:00:00 +0000,2022-09-14 03:00:00 -0700,16,16.7
2022-09-14 11:00:00 +0000,2022-09-14 04:00:00 -0700,13.6,15.1
2022-09-14 12:00:00 +0000,2022-09-14 05:00:00 -0700,12.2,13.6
2022-09-14 13:00:00 +0000,2022-09-14 06:00:00 -0700,13,13.3
2022-09-14 14:00:00 +0000,2022-09-14 07:00:00 -0700,12.6,12.9
2022-09-14 15:00:00 +0000,2022-09-14 08:00:00 -0700,12.6,12.7
2022-09-14 16:00:00 +0000,2022-09-14 09:00:00 -0700,12.8,12.9
2022-09-14 17:00:00 +0000,2022-09-14 10:00:00 -0700,12.6,12.9
2022-09-14 18:00:00 +0000,2022-09-14 11:00:00 -0700,12.8,12.8
2022-09-14 19:00:00 +0000,2022-09-14 12:00:00 -0700,13.5,13
2022-09-14 20:00:00 +0000,2022-09-14 13:00:00 -0700,18.9,15.1
2022-09-14 21:00:00 +0000,2022-09-14 14:00:00 -0700,20.8,17.6
2022-09-14 22:00:00 +0000,2022-09-14 15:00:00 -0700,22.6,20.1
2022-09-14 23:00:00 +0000,2022-09-14 16:00:00 -0700,25.2,22.8
2022-09-15 00:00:00 +0000,2022-09-14 17:00:00 -0700,26.8,24.8
2022-09-15 01:00:00 +0000,2022-09-14 18:00:00 -0700,26.5,25.6
2022-09-15 02:00:00 +0000,2022-09-14 19:00:00 -0700,15.1,20.3
2022-09-15 03:00:00 +0000,2022-09-14 20:00:00 -0700,12.2,16.2
2022-09-15 04:00:00 +0000,2022-09-14 21:00:00 -0700,13.4,14.8
2022-09-15 05:00:00 +0000,2022-09-14 22:00:00 -0700,13.2,14
2022-09-15 06:00:00 +0000,2022-09-14 23:00:00 -0700,13,13.5
2022-09-15 07:00:00 +0000,2022-09-15 00:00:00 -0700,13.5,13.5
2022-09-15 08:00:00 +0000,2022-09-15 01:00:00 -0700,14,13.7
2022-09-15 09:00:00 +0000,2022-09-15 02:00:00 -0700,14.4,14
2022-09-15 10:00:00 +0000,2022-09-15 03:00:00 -0700,14.4,14.2
2022-09-15 11:00:00 +0000,2022-09-15 04:00:00 -0700,14.1,14.1
2022-09-15 12:00:00 +0000,2022-09-15 05:00:00 -0700,14.3,14.2
2022-09-15 13:00:00 +0000,2022-09-15 06:00:00 -0700,14.3,14
2022-09-15 14:00:00 +0000,2022-09-15 07:00:00 -0700,14.1,14
2022-09-15 15:00:00 +0000,2022-09-15 08:00:00 -0700,13.5,13.9
2022-09-15 16:00:00 +0000,2022-09-15 09:00:00 -0700,14,13.9
2022-09-15 17:00:00 +0000,2022-09-15 10:00:00 -0700,15.5,14.2
2022-09-15 18:00:00 +0000,2022-09-15 11:00:00 -0700,17,14.9
2022-09-15 19:00:00 +0000,2022-09-15 12:00:00 -0700,18.2,15.9
2022-09-15 20:00:00 +0000,2022-09-15 13:00:00 -0700,19.8,17.3
2022-09-15 21:00:00 +0000,2022-09-15 14:00:00 -0700,19.8,18.1
2022-09-15 22:00:00 +0000,2022-09-15 15:00:00 -0700,19.9,18.7
2022-09-15 23:00:00 +0000,2022-09-15 16:00:00 -0700,20.2,19.2
2022-09-16 00:00:00 +0000,2022-09-15 17:00:00 -0700,22,20.4
2022-09-16 01:00:00 +0000,2022-09-15 18:00:00 -0700,20,20.3
2022-09-16 02:00:00 +0000,2022-09-15 19:00:00 -0700,18.6,19.6
2022-09-16 03:00:00 +0000,2022-09-15 20:00:00 -0700,15.6,18.1
2022-09-16 04:00:00 +0000,2022-09-15 21:00:00 -0700,16.6,17.9
2022-09-16 05:00:00 +0000,2022-09-15 22:00:00 -0700,15.2,17
2022-09-16 06:00:00 +0000,2022-09-15 23:00:00 -0700,14.4,15.9
2022-09-16 07:00:00 +0000,2022-09-16 00:00:00 -0700,13.9,15.1
2022-09-16 08:00:00 +0000,2022-09-16 01:00:00 -0700,13.2,14.2
2022-09-16 09:00:00 +0000,2022-09-16 02:00:00 -0700,12.6,13.4
2022-09-16 10:00:00 +0000,2022-09-16 03:00:00 -0700,12.2,12.8
2022-09-16 11:00:00 +0000,2022-09-16 04:00:00 -0700,12,12.4
2022-09-16 12:00:00 +0000,2022-09-16 05:00:00 -0700,12,12.3
2022-09-16 13:00:00 +0000,2022-09-16 06:00:00 -0700,11.5,12
2022-09-16 14:00:00 +0000,2022-09-16 07:00:00 -0700,11,11.7
2022-09-16 15:00:00 +0000,2022-09-16 08:00:00 -0700,11.5,11.6
2022-09-16 16:00:00 +0000,2022-09-16 09:00:00 -0700,12.2,11.8
2022-09-16 17:00:00 +0000,2022-09-16 10:00:00 -0700,10.6,11.5
2022-09-16 18:00:00 +0000,2022-09-16 11:00:00 -0700,8.4,10.1
2022-09-16 19:00:00 +0000,2022-09-16 12:00:00 -0700,4,6.9
2022-09-16 20:00:00 +0000,2022-09-16 13:00:00 -0700,3.4,5.1
2022-09-16 21:00:00 +0000,2022-09-16 14:00:00 -0700,2.7,3.9
2022-09-16 22:00:00 +0000,2022-09-16 15:00:00 -0700,2.4,3.1
2022-09-16 23:00:00 +0000,2022-09-16 16:00:00 -0700,2.4,2.7
2022-09-17 00:00:00 +0000,2022-09-16 17:00:00 -0700,2.4,2.5
2022-09-17 01:00:00 +0000,2022-09-16 18:00:00 -0700,2.3,2.4
2022-09-17 02:00:00 +0000,2022-09-16 19:00:00 -0700,2.5,2.4
2022-09-17 03:00:00 +0000,2022-09-16 20:00:00 -0700,2.6,2.5
2022-09-17 04:00:00 +0000,2022-09-16 21:00:00 -0700,2.6,2.5
2022-09-17 05:00:00 +0000,2022-09-16 22:00:00 -0700,2.4,2.4
2022-09-17 06:00:00 +0000,2022-09-16 23:00:00 -0700,2.5,2.4
2022-09-17 07:00:00 +0000,2022-09-17 00:00:00 -0700,2.5,2.4
2022-09-17 08:00:00 +0000,2022-09-17 01:00:00 -0700,2.7,2.5
2022-09-17 09:00:00 +0000,2022-09-17 02:00:00 -0700,2.6,2.5
2022-09-17 10:00:00 +0000,2022-09-17 03:00:00 -0700,2.5,2.5
2022-09-17 11:00:00 +0000,2022-09-17 04:00:00 -0700,2.5,2.5
2022-09-17 12:00:00 +0000,2022-09-17 05:00:00 -0700,2.6,2.5
2022-09-17 13:00:00 +0000,2022-09-17 06:00:00 -0700,2.6,2.5
2022-09-17 14:00:00 +0000,2022-09-17 07:00:00 -0700,2.6,2.5
2022-09-17 15:00:00 +0000,2022-09-17 08:00:00 -0700,2.7,2.5
2022-09-17 16:00:00 +0000,2022-09-17 09:00:00 -0700,2.6,2.5
2022-09-17 17:00:00 +0000,2022-09-17 10:00:00 -0700,2.9,2.6
2022-09-17 18:00:00 +0000,2022-09-17 11:00:00 -0700,3.2,2.7
2022-09-17 19:00:00 +0000,2022-09-17 12:00:00 -0700,3,2.8
2022-09-17 20:00:00 +0000,2022-09-17 13:00:00 -0700,3,2.8
2022-09-17 21:00:00 +0000,2022-09-17 14:00:00 -0700,3,2.9
2022-09-17 22:00:00 +0000,2022-09-17 15:00:00 -0700,3,2.9
2022-09-17 23:00:00 +0000,2022-09-17 16:00:00 -0700,3.1,2.9
2022-09-18 00:00:00 +0000,2022-09-17 17:00:00 -0700,3.1,3
2022-09-18 01:00:00 +0000,2022-09-17 18:00:00 -0700,3.3,3
2022-09-18 02:00:00 +0000,2022-09-17 19:00:00 -0700,3.5,3.2
2022-09-18 03:00:00 +0000,2022-09-17 20:00:00 -0700,3.4,3.2
2022-09-18 04:00:00 +0000,2022-09-17 21:00:00 -0700,3.7,3.3
2022-09-18 05:00:00 +0000,2022-09-17 22:00:00 -0700,3.4,3.3
2022-09-18 06:00:00 +0000,2022-09-17 23:00:00 -0700,3.3,3.3
2022-09-18 07:00:00 +0000,2022-09-18 00:00:00 -0700,3.2,3.3
2022-09-18 08:00:00 +0000,2022-09-18 01:00:00 -0700,3.2,3.3
2022-09-18 09:00:00 +0000,2022-09-18 02:00:00 -0700,3.3,3.3
2022-09-18 10:00:00 +0000,2022-09-18 03:00:00 -0700,3.3,3.3
2022-09-18 11:00:00 +0000,2022-09-18 04:00:00 -0700,3.2,3.2
2022-09-18 12:00:00 +0000,2022-09-18 05:00:00 -0700,3.1,3.2
2022-09-18 13:00:00 +0000,2022-09-18 06:00:00 -0700,3.3,3.2
2022-09-18 14:00:00 +0000,2022-09-18 07:00:00 -0700,3.3,3.2
2022-09-18 15:00:00 +0000,2022-09-18 08:00:00 -0700,3.4,3.2
2022-09-18 16:00:00 +0000,2022-09-18 09:00:00 -0700,3.6,3.3
2022-09-18 17:00:00 +0000,2022-09-18 10:00:00 -0700,3.8,3.4
2022-09-18 18:00:00 +0000,2022-09-18 11:00:00 -0700,3.6,3.4
2022-09-18 19:00:00 +0000,2022-09-18 12:00:00 -0700,3.7,3.5
2022-09-18 20:00:00 +0000,2022-09-18 13:00:00 -0700,4.2,3.7
2022-09-18 21:00:00 +0000,2022-09-18 14:00:00 -0700,5.8,4.7
2022-09-18 22:00:00 +0000,2022-09-18 15:00:00 -0700,5.5,5.1
2022-09-18 23:00:00 +0000,2022-09-18 16:00:00 -0700,5.9,5.4
2022-09-19 00:00:00 +0000,2022-09-18 17:00:00 -0700,8.8,7.1
2022-09-19 01:00:00 +0000,2022-09-18 18:00:00 -0700,6.2,6.6
2022-09-19 02:00:00 +0000,2022-09-18 19:00:00 -0700,6.2,6.4
2022-09-19 03:00:00 +0000,2022-09-18 20:00:00 -0700,8,7.2
2022-09-19 04:00:00 +0000,2022-09-18 21:00:00 -0700,8,7.6
2022-09-19 05:00:00 +0000,2022-09-18 22:00:00 -0700,7.8,7.7
2022-09-19 06:00:00 +0000,2022-09-18 23:00:00 -0700,7.8,7.7
2022-09-19 07:00:00 +0000,2022-09-19 00:00:00 -0700,7.7,7.7
2022-09-19 08:00:00 +0000,2022-09-19 01:00:00 -0700,7.7,7.6
2022-09-19 09:00:00 +0000,2022-09-19 02:00:00 -0700,7.6,7.6
2022-09-19 10:00:00 +0000,2022-09-19 03:00:00 -0700,7.6,7.6
2022-09-19 11:00:00 +0000,2022-09-19 04:00:00 -0700,7.6,7.6
2022-09-19 12:00:00 +0000,2022-09-19 05:00:00 -0700,7.6,7.6
2022-09-19 13:00:00 +0000,2022-09-19 06:00:00 -0700,7.5,7.5
2022-09-19 14:00:00 +0000,2022-09-19 07:00:00 -0700,7.7,7.6
2022-09-19 15:00:00 +0000,2022-09-19 08:00:00 -0700,NA,NA
